ERS-1

Last updated on Mon Sep 21 2026 00:02:08 GMT+0000 (Coordinated Universal Time)

1 21574U 91050A 26263.31896732 .00000164 00000+0 66998-4 0 9994 2 21574 98.7776 286.3327 0031561 346.7853 13.2504 14.39566910843732
UTC large
Height (km)
Speed (km/s)
/
Latitude / Longitude
Inclination (degrees)
Orbital Period (minutes)
Azimuth
Elevation
Range (km)
Doppler Factor

Next 0 passes for location: London (51.5072 / 0.1276)

No passes found over London.
ERS-1